Regional Weather Roundup
Issued by NWS

Home | Current Version | Previous Version | Text Only | Print | Product List | Glossary Off
Versions: 1 2 3 4 5 6 7 8 9 10 11 12 13 14 15 16 17 18 19 20 21 22 23 24 25 26 27 28 29 30 31 32 33 34 35 36 37 38 39 40 41 42 43 44 45 46 47 48 49 50

000
ASUS43 KOAX 312302
RWRNE

WEATHER ROUNDUP FOR NEBRASKA
NATIONAL WEATHER SERVICE OMAHA NE
500 PM CST SAT JAN 31 2015

NOTES: SATELLITE DATA IS BEING USED TO AUGMENT CLOUD COVER ABOVE
       12000 FEET.
       "FAIR" INDICATES FEW OR NO CLOUDS BELOW 12,000 FEET WITH NO
       SIGNIFICANT WEATHER AND/OR OBSTRUCTIONS TO VISIBILITY.

  * THESE STATIONS DO NOT REPORT WEATHER SUCH AS RAIN...SNOW OR FOG.

NEZ001>004-019>022-054>056-010000-
NEBRASKA PANHANDLE

CITY           SKY/WX    TMP DP  RH WIND       PRES   REMARKS
SCOTTSBLUFF    CLOUDY    33  30  88 E8        29.86S WCI  26
ALLIANCE       SNOW      29  27  92 N12       29.86R VSB 1/2 WCI  19
CHADRON        CLOUDY    27  24  89 NE13      29.92F FOG     WCI  16
SIDNEY         LGT SNOW  31  29  92 N8        29.82S VSB 3/4 WCI  23
$$

NEZ057>060-069>072-079>082-010000-
SOUTHWEST NEBRASKA

CITY           SKY/WX    TMP DP  RH WIND       PRES   REMARKS
NORTH PLATTE   LGT SNOW  33  31  92 NE7       29.84S VSB 3/4 WCI  27
IMPERIAL       LGT SNOW  33  31  92 N7        29.82R FOG     WCI  27
MCCOOK         LGT SNOW  34  32  92 N7        29.82S FOG     WCI  28
$$

NEZ005>010-023>029-035>040-094-010000-
NORTH CENTRAL NEBRASKA

CITY           SKY/WX    TMP DP  RH WIND       PRES   REMARKS
VALENTINE      LGT SNOW  24  22  91 NE14      29.97R FOG     WCI  12
BROKEN BOW     LGT SNOW  34  32  92 NE6       29.85  VSB 3/4 WCI  29
ORD            LGT SNOW  32  31  96 E3        29.88S VSB 1
$$

NEZ041-046>049-061>064-073>077-083>087-010000-
SOUTH CENTRAL NEBRASKA

CITY           SKY/WX    TMP DP  RH WIND       PRES   REMARKS
GRAND ISLAND   SNOW      32  31  96 E5        29.89F VSB 1/2 WCI  27
HASTINGS       LGT SNOW  32  30  92 SE6       29.86F VSB 3/4 WCI  26
KEARNEY *      CLOUDY    32  30  93 E6        29.86F WCI  26
$$

NEZ011>018-030>034-042>045-010000-
NORTHEAST NEBRASKA

CITY           SKY/WX    TMP DP  RH WIND       PRES   REMARKS
NORFOLK        LGT SNOW  34  33  96 E5        29.93S FOG     WCI  30
COLUMBUS *     CLOUDY    32  28  86 E6        29.94F WCI  26
TEKAMAH        LGT SNOW  33  32  96 E6        29.99F VSB 3/4 WCI  28
$$

NEZ050>053-065>068-078-088>093-010000-
SOUTHEAST NEBRASKA

CITY           SKY/WX    TMP DP  RH WIND       PRES   REMARKS
LINCOLN        LGT SNOW  33  32  96 SE6       29.95F VSB 3/4 WCI  28
OMAHA EPPLEY   LGT SNOW  33  32  96 SE8       29.98F VSB 3/4 WCI  26
FALLS CITY     LGT SNOW  33  33 100 SE8       29.98F FOG     WCI  26
$$

NEZ044-045-051>053-067-010000-
OMAHA AREA

CITY           SKY/WX    TMP DP  RH WIND       PRES   REMARKS
OMAHA EPPLEY   LGT SNOW  33  32  96 SE8       29.98F VSB 3/4 WCI  26
$$


USA.gov is the U.S. government's official web portal to all federal, state and local government web resources and services.